Location: Courçay
(47.2523°N, 0.8761°E)
Time: 20:25:40
(UTC+00:00)

BREEZE-M DEB (TANK) - Pass Details

Date: 18 November 2025
Orbit: 304 x 15919 km, 49.4° (Epoch: 04 December)

Event Time Altitude Azimuth Distance (km) Brightness Sun altitude
Rises 17:29:08 0° 247° (WSW) 2,025 7.2 -12.0°
Reaches altitude 10° 17:30:31 10° 246° (WSW) 1,305 5.7 -12.3°
Maximum altitude 17:32:54 80° 159° (SSE) 498 2.0 -12.7°
Enters shadow 17:36:13 19° 73° (ENE) 1,878 4.4 -13.2°
